Regional Weather Roundup
Issued by NWS State College, PA

Home | Current Version | Previous Version | Text Only | Print | Product List | Glossary Off
Versions: 1 2 3 4 5 6 7 8 9 10 11 12 13 14 15 16 17 18 19 20 21 22 23 24 25 26 27 28 29 30 31 32 33 34 35 36 37 38 39 40 41 42 43 44 45 46 47 48 49 50

000
ASUS41 KCTP 300503
RWRCTP

REGIONAL WEATHER ROUNDUP
NATIONAL WEATHER SERVICE STATE COLLEGE PA
100 AM EDT SAT JUL 30 2016

Note: "fair" indicates few or no clouds below 12,000 feet with no
significant weather and/or obstructions to visibility.

* = STATION THAT DOES NOT REPORT PRECIPITATION /E.G. RAIN...SNOW...ETC/
    THUNDER OR FOG.

PAZ002>004-007>009-013>016-020>023-029>032-300600-
WESTERN PENNSYLVANIA

CITY           SKY/WX    TMP DP  RH WIND       PRES   REMARKS
ERIE           CLOUDY    73  66  78 SE3       29.96S HAZE
MEADVILLE      CLOUDY    66  64  93 E3        29.99S
FRANKLIN*      CLOUDY    64  63  94 CALM      30.01R VSB 1/4
NEW CASTLE     FAIR      67  66  97 CALM      29.98S FOG
BEAVER COUNTY  NOT AVBL
BUTLER*        CLOUDY    66  64  94 CALM      30.01S
PITTSBURGH INT CLOUDY    72  65  78 CALM      29.97S
PITTSBURGH     CLEAR     74  62  66 E3        29.97S
INDIANA*       PTCLDY    68  64  88 CALM      30.03S
LATROBE        CLEAR     68  68 100 CALM      29.99R
WASHINGTON CO* CLEAR     66  63  88 CALM      29.98S
$$

PAZ004>006-010>012-017>019-024>028-033>037-041-042-045-046-049>053-300600-
CENTRAL PENNSYLVANIA

CITY           SKY/WX    TMP DP  RH WIND       PRES   REMARKS
BRADFORD       CLEAR     66  62  87 CALM      30.04S
DUBOIS         CLOUDY    68  64  87 E5        30.01S
CLEARFIELD     PTCLDY    65  62  90 N5        30.01R
JOHNSTOWN      CLEAR     69  61  75 E3        30.03S
ALTOONA        CLEAR     65  65 100 CALM      30.01R
STATE COLLEGE  CLEAR     68  64  88 CALM      29.99S
WILLIAMSPORT   PTCLDY    72  65  78 SW3       29.96R
SELINSGROVE    CLOUDY    72  72 100 CALM      29.96S
FT INDIANTOWN  MOCLDY    71  69  92 N3        29.96R
CAPITAL CITY   CLEAR     79  66  64 E5        29.95R
HARRISBURG     PTCLDY    79  69  71 VRB3      29.94R
YORK           CLEAR     70  68  93 CALM      29.95R
$$

PAZ038>040-043-044-047-048-054-055-060>062-067>071-300600-
EASTERN PENNSYLVANIA

CITY           SKY/WX    TMP DP  RH WIND       PRES   REMARKS
SCRANTON       CLEAR     71  64  78 E5        29.98R
MOUNT POCONO   CLEAR     63  61  93 CALM      30.02S
ALLENTOWN      PTCLDY    72  69  90 CALM      29.95S
QUAKERTOWN*    CLOUDY    72  72 100 CALM      29.97R
READING        HVY RAIN  74  70  87 SW9       29.95R FOG
LANCASTER      MOCLDY    73  69  87 E5        29.95R
COATESVILLE    CLEAR     73  70  88 CALM      29.98S
POTTSTOWN      CLOUDY    74  70  87 CALM      29.97S
BLUE BELL      CLOUDY    72  68  88 CALM      29.94S
DOYLESTOWN     CLOUDY    69  69 100 CALM      29.94S
WILLOW GROVE   NOT AVBL
NORTH PHILA    CLOUDY    78  70  76 CALM      29.95F
PHILADELPHIA   PTCLDY    77  71  82 SW7       29.95F
$$



USA.gov is the U.S. government's official web portal to all federal, state and local government web resources and services.